Weather History for Meridian, MS

Change the Weather History Date:

Tuesday, November 19, 2013

  Actual Average Record
Temperature  
Mean Temperature 48 °F 54 °F  
Max Temperature 61 °F 67 °F 85 °F (1906)
Min Temperature 34 °F 41 °F 19 °F (1951)
Degree Days  
Heating Degree Days 17 12  
Month to date heating degree days 201 178  
Since 1 July heating degree days 289 302  
Cooling Degree Days 0 0  
Month to date cooling degree days 5 13  
Year to date cooling degree days 2041 2026  
Moisture  
Dew Point 30 °F    
Average Humidity 59    
Maximum Humidity 92    
Minimum Humidity 25    
Precipitation  
Precipitation 0.00 in 0.17 in 2.83 in (1983)
Month to date precipitation 1.52 2.96  
Year to date precipitation 56.67 49.11  
Sea Level Pressure  
Sea Level Pressure 30.15 in    
Wind  
Wind Speed 9 mph (NNE)    
Max Wind Speed 21 mph    
Max Gust Speed 25 mph    
Visibility 10 miles    
Events      
T = Trace of Precipitation, MM = Missing Value Source: NWS Daily Summary

Daily Weather History Graph

Daily Weather History Graph

Search for Another Location

Airport:

Trip Planner

Search our weather history database for the weather conditions in past years. The results will help you decide how hot, cold, wet, or windy it might be!

Date:

Astronomy

Nov. 19, 2013 Rise Set
Actual Time 6:28 AM CST 4:52 PM CST
Civil Twilight 6:01 AM CST 5:18 PM CST
Nautical Twilight 5:32 AM CST 5:48 PM CST
Astronomical Twilight 5:02 AM CST 6:17 PM CST
Moon 6:44 PM CST (11/19) 8:06 AM CST (11/19)
Length of Visible Light 11h 16m
Length of Day
10h 24m
Waning Gibbous, 96% of the Moon is Illuminated
Nov 19
Waning Gibbous
Nov 25
Last Quarter
Dec 2
New
Dec 9
First Quarter
Dec 17
Full

Hourly Weather History & Observations

Time (CST) Temp. Windchill Dew Point Humidity Pressure Visibility Wind Dir Wind Speed Gust Speed Precip Events Conditions
12:58 AM 51.1 °F - 37.0 °F 59% 30.14 in 10.0 mi NNE 11.5 mph - N/A   Clear
1:58 AM 50.0 °F - 35.1 °F 57% 30.15 in 10.0 mi NNE 13.8 mph - N/A   Clear
2:58 AM 48.9 °F - 34.0 °F 56% 30.15 in 10.0 mi NNE 13.8 mph - N/A   Clear
3:58 AM 46.9 °F - 33.1 °F 59% 30.16 in 10.0 mi NNE 10.4 mph - N/A   Clear
4:58 AM 46.9 °F - 33.1 °F 59% 30.19 in 10.0 mi NNE 12.7 mph - N/A   Clear
5:58 AM 46.9 °F - 30.9 °F 54% 30.19 in 10.0 mi NNE 12.7 mph - N/A   Clear
6:58 AM 45.0 °F 39.7 °F 30.9 °F 58% 30.21 in 10.0 mi North 10.4 mph - N/A   Clear
7:58 AM 48.9 °F - 28.9 °F 46% 30.21 in 10.0 mi NNE 17.3 mph - N/A   Clear
8:58 AM 51.1 °F - 28.9 °F 43% 30.22 in 10.0 mi NE 12.7 mph 20.7 mph N/A   Clear
9:58 AM 53.1 °F - 26.1 °F 35% 30.22 in 10.0 mi NNE 13.8 mph - N/A   Clear
10:58 AM 57.0 °F - 23.0 °F 27% 30.18 in 10.0 mi NNE 11.5 mph 19.6 mph N/A   Clear
11:58 AM 57.9 °F - 23.0 °F 26% 30.15 in 10.0 mi North 13.8 mph - N/A   Clear
12:58 PM 59.0 °F - 24.1 °F 26% 30.12 in 10.0 mi North 15.0 mph 24.2 mph N/A   Clear
1:58 PM 57.9 °F - 25.0 °F 28% 30.11 in 10.0 mi NNE 15.0 mph - N/A   Clear
2:58 PM 57.0 °F - 26.1 °F 30% 30.12 in 10.0 mi North 12.7 mph - N/A   Clear
3:58 PM 55.9 °F - 27.0 °F 33% 30.12 in 10.0 mi NNE 12.7 mph - N/A   Clear
4:58 PM 51.1 °F - 28.0 °F 41% 30.12 in 10.0 mi North 10.4 mph - N/A   Clear
5:58 PM 46.0 °F 44.8 °F 33.1 °F 61% 30.13 in 10.0 mi NNW 3.5 mph - N/A   Clear
6:58 PM 42.1 °F - 34.0 °F 73% 30.14 in 10.0 mi Calm Calm - N/A   Clear
7:58 PM 41.0 °F - 35.1 °F 79% 30.14 in 10.0 mi Calm Calm - N/A   Clear
8:58 PM 37.0 °F - 34.0 °F 89% 30.14 in 10.0 mi Calm Calm - N/A   Clear
9:58 PM 36.0 °F - 33.1 °F 89% 30.14 in 10.0 mi Calm Calm - N/A   Clear
10:58 PM 36.0 °F - 33.1 °F 89% 30.13 in 10.0 mi Calm Calm - N/A   Clear
11:58 PM 37.0 °F - 33.1 °F 86% 30.12 in 10.0 mi Calm Calm - N/A   Clear